CW1923 Weather Reports


Display with metric or nautical units.
time (UTC)temp
F
wind
direction
speed
MPH
gust
MPH
rain 1hr
in
rain 24hr
in
rain mn
in
humidity
%
barometer
mb
20260505164104 52 5 0.0 4.0 0.00 0.54 0.09 98 1009.2
20260505163604 52 4 0.0 5.0 0.00 0.57 0.09 98 1009.1
20260505162059 52 76 0.0 4.0 0.00 0.59 0.09 98 1009.1
20260505161555 52 64 0.0 4.0 0.01 0.59 0.09 98 1009.2
20260505161043 52 53 2.0 5.0 0.01 0.59 0.09 98 1009.3
20260505153033 52 104 2.0 5.0 0.01 0.59 0.09 98 1009.3
20260505152532 52 106 0.0 4.0 0.01 0.59 0.09 98 1009.4
20260505152032 52 106 0.0 4.0 0.01 0.59 0.09 98 1009.5
20260505150532 52 116 0.0 4.0 0.00 0.58 0.08 98 1009.5
20260505140530 52 131 2.0 12.0 0.00 0.58 0.08 98 1009.8
20260505124502 51 101 0.0 5.0 0.00 0.58 0.08 98 1010.3
20260505124004 52 98 0.0 5.0 0.00 0.58 0.08 98 1010.3
20260505123506 51 112 0.0 4.0 0.00 0.58 0.08 98 1010.3
20260505123005 51 114 0.0 5.0 0.00 0.58 0.08 98 1010.3
20260505121950 52 120 0.0 4.0 0.00 0.58 0.08 98 1010.4
20260505121451 52 123 0.0 4.0 0.01 0.58 0.08 98 1010.4
20260505120949 52 123 0.0 4.0 0.01 0.58 0.08 98 1010.4
20260505115441 52 158 2.0 4.0 0.01 0.58 0.08 98 1010.3
20260505114935 52 88 2.0 5.0 0.01 0.58 0.08 99 1010.3
20260505114433 52 347 2.0 5.0 0.01 0.58 0.08 98 1010.4
20260505113934 52 337 0.0 4.0 0.01 0.58 0.08 98 1010.4
20260505113432 51 337 2.0 5.0 0.01 0.58 0.08 98 1010.4
20260505112931 51 337 2.0 5.0 0.01 0.58 0.08 98 1010.4
20260505112425 52 74 0.0 5.0 0.01 0.58 0.08 98 1010.5
20260505111925 52 116 0.0 4.0 0.01 0.58 0.08 99 1010.5
20260505111425 52 116 2.0 5.0 0.00 0.57 0.07 98 1010.5
20260505110923 52 116 2.0 7.0 0.00 0.57 0.07 98 1010.6
20260505110421 52 127 0.0 7.0 0.00 0.57 0.07 98 1010.6
20260505101905 51 75 2.0 4.0 0.00 0.57 0.07 98 1010.6
20260505101405 51 68 0.0 4.0 0.00 0.57 0.07 98 1010.6
20260505100906 51 73 0.0 4.0 0.00 0.57 0.07 98 1010.7
20260505100404 51 73 0.0 4.0 0.00 0.57 0.07 98 1010.6
20260505095905 51 73 0.0 4.0 0.00 0.57 0.07 98 1010.7
20260505095406 51 76 2.0 5.0 0.00 0.57 0.07 98 1010.6
20260505094403 51 85 2.0 12.0 0.00 0.57 0.07 98 1010.6
20260505093906 51 109 2.0 9.0 0.00 0.57 0.07 98 1010.6
20260505093404 51 95 2.0 9.0 0.00 0.57 0.07 98 1010.6
20260505092408 51 303 2.0 7.0 0.00 0.57 0.07 98 1010.7
20260505091904 51 193 2.0 7.0 0.00 0.57 0.07 98 1010.7
20260505090906 51 193 2.0 5.0 0.00 0.57 0.07 98 1010.7
20260505090405 51 94 2.0 7.0 0.00 0.57 0.07 98 1010.7
20260505085904 51 87 2.0 7.0 0.00 0.57 0.07 98 1010.8
20260505085404 51 66 0.0 4.0 0.00 0.57 0.07 98 1010.7
20260505084904 51 101 0.0 5.0 0.00 0.57 0.07 98 1010.8
20260505083856 51 61 2.0 5.0 0.00 0.57 0.07 98 1010.8
20260505083351 51 61 2.0 5.0 0.00 0.57 0.07 98 1010.8
20260505081839 51 47 2.0 7.0 0.00 0.57 0.07 98 1010.7
20260505081342 51 47 2.0 7.0 0.00 0.57 0.07 98 1010.8
20260505080840 51 49 2.0 5.0 0.00 0.57 0.07 98 1010.7
20260505075838 51 54 0.0 4.0 0.00 0.57 0.07 98 1010.7
20260505075337 51 35 2.0 5.0 0.00 0.57 0.07 98 1010.6
20260505074834 51 9 2.0 7.0 0.00 0.57 0.07 98 1010.7
20260505074333 51 14 2.0 7.0 0.00 0.57 0.07 98 1010.8
20260505073834 51 15 2.0 7.0 0.00 0.57 0.07 98 1010.7
20260505072334 51 341 0.0 5.0 0.00 0.57 0.07 98 1010.9
20260505071332 51 83 2.0 5.0 0.00 0.57 0.07 98 1010.7
20260505070831 51 94 2.0 5.0 0.00 0.57 0.07 98 1010.8
20260505070332 51 25 2.0 5.0 0.00 0.57 0.07 98 1010.8
20260505065832 51 85 2.0 4.0 0.00 0.57 0.07 98 1010.7
20260505065331 51 85 2.0 4.0 0.00 0.57 0.07 98 1010.7
20260505064831 51 11 2.0 4.0 0.00 0.57 0.07 98 1010.8
20260505064332 51 10 2.0 7.0 0.00 0.57 0.07 98 1010.8
20260505063831 51 7 4.0 7.0 0.00 0.57 0.07 98 1010.8
20260505063332 51 19 2.0 5.0 0.00 0.57 0.07 98 1010.9
20260505062834 52 39 2.0 7.0 0.00 0.57 0.07 98 1010.9
20260505062332 52 35 2.0 7.0 0.00 0.57 0.07 98 1010.9
20260505061833 52 66 2.0 5.0 0.00 0.57 0.07 98 1011.0
20260505060818 52 62 4.0 7.0 0.00 0.57 0.07 98 1011.1
20260505060323 52 6 2.0 7.0 0.00 0.57 0.07 98 1011.0
20260505055804 52 25 2.0 7.0 0.00 0.57 0.07 98 1011.1
20260505055305 52 40 2.0 7.0 0.00 0.57 0.07 98 1011.0
20260505054803 52 7 2.0 5.0 0.00 0.57 0.07 98 1010.9
20260505054303 52 3 2.0 5.0 0.00 0.57 0.07 98 1011.0
20260505053804 52 3 2.0 5.0 0.00 0.57 0.07 98 1010.9
20260505053304 53 3 2.0 5.0 0.00 0.57 0.07 98 1010.8
20260505052802 53 3 2.0 5.0 0.00 0.57 0.07 98 1010.8
20260505052306 53 1 2.0 4.0 0.00 0.57 0.07 98 1010.8
20260505051303 53 359 2.0 5.0 0.00 0.57 0.07 98 1010.7
20260505050804 53 356 2.0 5.0 0.00 0.57 0.07 98 1010.7
20260505050303 53 3 2.0 5.0 0.00 0.57 0.07 98 1010.7
20260505041304 53 14 2.0 4.0 0.00 0.57 0.07 98 1010.9
20260505040802 53 12 2.0 5.0 0.00 0.57 0.07 98 1010.9
20260505040308 53 10 0.0 5.0 0.00 0.57 0.07 98 1011.0
20260505035806 53 357 0.0 4.0 0.00 0.57 0.07 98 1010.9
20260505034802 53 355 2.0 7.0 0.00 0.57 0.07 98 1011.0
20260505034303 54 353 2.0 7.0 0.00 0.57 0.07 98 1010.9
20260505033803 54 346 2.0 5.0 0.00 0.57 0.07 98 1010.9
20260505033301 54 345 2.0 5.0 0.00 0.57 0.07 98 1010.9
20260505032803 54 345 2.0 7.0 0.00 0.57 0.07 98 1010.9
20260505032300 54 343 2.0 7.0 0.00 0.57 0.07 98 1010.9
20260505031302 54 51 0.0 4.0 0.00 0.57 0.07 98 1011.0
20260505030804 54 53 2.0 5.0 0.00 0.57 0.07 98 1010.9
20260505030303 54 52 2.0 5.0 0.00 0.57 0.07 98 1010.9
20260505025304 54 58 2.0 5.0 0.00 0.57 0.07 98 1010.9
20260505024802 54 59 2.0 5.0 0.00 0.57 0.07 98 1011.0
20260505024303 54 64 0.0 5.0 0.00 0.57 0.07 98 1011.0
20260505023804 55 62 2.0 7.0 0.00 0.57 0.07 98 1011.1
20260505023304 55 89 2.0 7.0 0.00 0.57 0.07 97 1011.1
20260505022803 55 183 0.0 5.0 0.00 0.57 0.07 98 1011.1
20260505022304 55 184 0.0 4.0 0.00 0.57 0.07 98 1011.1
20260505021802 55 184 0.0 2.0 0.00 0.57 0.07 98 1011.0
20260505021301 55 184 0.0 2.0 0.00 0.57 0.07 98 1011.0
20260505020803 55 184 2.0 7.0 0.00 0.57 0.07 98 1011.0
20260505020301 55 183 2.0 7.0 0.00 0.57 0.07 97 1011.1
20260505015801 55 182 2.0 7.0 0.00 0.57 0.07 97 1011.1
20260505015303 55 180 0.0 4.0 0.00 0.57 0.07 98 1011.1
20260505014805 55 181 0.0 5.0 0.00 0.57 0.07 98 1011.0
20260505014307 56 181 0.0 5.0 0.00 0.57 0.07 97 1011.1
20260505013802 56 301 0.0 0.0 0.00 0.57 0.07 98 1011.1
20260505013302 56 301 0.0 2.0 0.00 0.57 0.07 97 1011.0
20260505012802 56 301 0.0 4.0 0.00 0.57 0.07 97 1011.1
20260505011803 56 301 0.0 7.0 0.00 0.57 0.07 98 1011.0
20260505011303 56 289 0.0 4.0 0.00 0.57 0.07 98 1011.0
20260505010803 56 289 2.0 5.0 0.00 0.57 0.07 98 1011.1
20260505010302 56 289 2.0 5.0 0.00 0.57 0.07 97 1011.2
20260505005802 56 287 0.0 5.0 0.00 0.57 0.07 97 1011.2
20260505005301 56 308 0.0 5.0 0.00 0.57 0.07 97 1011.3
20260505004804 56 307 0.0 7.0 0.00 0.57 0.07 97 1011.3
20260505004303 56 307 0.0 7.0 0.00 0.57 0.07 97 1011.4
20260505003805 56 220 0.0 2.0 0.00 0.57 0.07 97 1011.3
20260505003303 56 220 0.0 5.0 0.00 0.57 0.07 97 1011.3
20260505002801 57 217 2.0 5.0 0.01 0.57 0.07 97 1011.3
20260505002256 57 208 0.0 5.0 0.01 0.57 0.07 97 1011.3
20260505001750 57 241 0.0 0.0 0.01 0.57 0.07 97 1011.4
20260505001246 57 241 0.0 0.0 0.01 0.57 0.07 97 1011.5
20260505000747 57 241 0.0 0.0 0.01 0.57 0.07 97 1011.5
20260505000247 57 241 0.0 0.0 0.02 0.57 0.07 97 1011.5
20260504235746 57 241 0.0 0.0 0.02 0.57 0.07 97 1011.6
20260504235238 57 241 0.0 0.0 0.02 0.57 0.07 97 1011.6
20260504234738 57 241 0.0 0.0 0.02 0.57 0.07 97 1011.6
20260504234235 57 241 0.0 0.0 0.03 0.57 0.07 97 1011.6
20260504233735 57 241 0.0 0.0 0.04 0.57 0.07 97 1011.5
20260504233235 57 241 0.0 0.0 0.04 0.57 0.07 97 1011.6
20260504232231 57 241 0.0 0.0 0.04 0.57 0.06 97 1011.6
20260504231730 57 241 0.0 0.0 0.05 0.57 0.06 97 1011.6
20260504231228 57 241 0.0 0.0 0.06 0.57 0.06 97 1011.7
20260504230732 57 241 0.0 0.0 0.06 0.57 0.06 97 1011.7
20260504230226 57 241 0.0 0.0 0.06 0.56 0.06 97 1011.8
20260504225730 57 241 0.0 0.0 0.06 0.56 0.06 97 1011.8
20260504225227 57 241 0.0 0.0 0.06 0.55 0.05 97 1011.9
20260504224220 57 241 0.0 0.0 0.05 0.54 0.04 97 1011.9
20260504223719 57 241 0.0 0.0 0.04 0.54 0.03 97 1011.9
20260504223213 57 241 0.0 0.0 0.04 0.54 0.03 97 1011.9
20260504222710 57 241 0.0 0.0 0.04 0.54 0.03 97 1012.0
20260504222210 57 241 0.0 0.0 0.04 0.53 0.02 97 1012.0
20260504221704 57 241 0.0 0.0 0.03 0.52 0.02 97 1012.2
20260504221201 57 241 0.0 0.0 0.02 0.51 0.01 97 1012.1
20260504220704 57 241 0.0 0.0 0.02 0.50 0.00 97 1012.2
20260504220202 57 241 0.0 0.0 0.02 0.50 0.00 97 1012.3
20260504215703 57 241 0.0 0.0 0.01 0.50 0.50 97 1012.4
20260504215204 57 241 0.0 0.0 0.01 0.50 0.50 97 1012.3
20260504214202 57 241 0.0 0.0 0.01 0.50 0.50 97 1012.4
20260504213205 57 241 0.0 0.0 0.01 0.50 0.50 96 1012.4
20260504212159 58 241 0.0 0.0 0.01 0.49 0.49 97 1012.6
20260504211650 58 241 0.0 0.0 0.01 0.49 0.49 96 1012.6
20260504211148 58 241 0.0 0.0 0.01 0.49 0.49 96 1012.5
20260504210134 58 241 0.0 0.0 0.01 0.49 0.49 96 1012.6
20260504205629 58 241 0.0 0.0 0.01 0.49 0.49 96 1012.5
20260504205130 58 241 0.0 0.0 0.01 0.49 0.49 96 1012.5
20260504204632 58 241 0.0 0.0 0.01 0.49 0.49 96 1012.7
20260504203630 58 241 0.0 0.0 0.01 0.49 0.49 96 1012.6
20260504203131 58 241 0.0 4.0 0.01 0.49 0.49 96 1012.5
20260504202632 58 241 0.0 4.0 0.01 0.49 0.49 96 1012.5
20260504202132 58 241 0.0 2.0 0.00 0.48 0.48 96 1012.5
20260504201635 58 241 0.0 4.0 0.00 0.48 0.48 96 1012.5
20260504201129 58 241 2.0 5.0 0.00 0.48 0.48 96 1012.6
20260504200627 58 241 2.0 5.0 0.00 0.48 0.48 96 1012.6
20260504200128 58 235 2.0 7.0 0.00 0.48 0.48 96 1012.5
20260504195621 58 203 0.0 7.0 0.00 0.48 0.48 96 1012.6
20260504195122 58 147 0.0 0.0 0.00 0.48 0.48 96 1012.6
20260504194614 58 147 0.0 2.0 0.00 0.48 0.48 96 1012.5
20260504194110 58 147 0.0 2.0 0.00 0.48 0.48 96 1012.5
20260504193103 58 147 0.0 0.0 0.00 0.48 0.48 96 1012.3
20260504192605 58 147 0.0 0.0 0.00 0.48 0.48 95 1012.2
20260504192104 58 147 0.0 0.0 0.01 0.48 0.48 96 1012.3
20260504191554 58 147 0.0 0.0 0.02 0.48 0.48 95 1012.3
20260504191043 58 147 0.0 0.0 0.05 0.48 0.48 95 1012.3
20260504190545 58 147 0.0 0.0 0.07 0.48 0.48 95 1012.3
20260504190044 58 147 0.0 0.0 0.08 0.48 0.48 95 1012.3
20260504185538 58 147 0.0 2.0 0.09 0.48 0.48 95 1012.2
20260504185034 58 147 0.0 2.0 0.10 0.48 0.48 95 1012.2
20260504184533 58 147 0.0 0.0 0.11 0.48 0.48 95 1012.2
20260504182533 58 147 2.0 4.0 0.14 0.48 0.47 94 1012.2
20260504182031 58 147 2.0 4.0 0.15 0.47 0.46 94 1012.3
20260504181536 58 146 0.0 4.0 0.14 0.45 0.45 94 1012.3
20260504181036 58 146 2.0 4.0 0.15 0.43 0.43 94 1012.3
20260504175520 59 88 2.0 5.0 0.20 0.39 0.38 93 1012.4
20260504175021 59 62 0.0 2.0 0.25 0.39 0.38 93 1012.3
20260504174516 59 62 0.0 4.0 0.29 0.39 0.36 93 1012.3
20260504174016 59 62 0.0 4.0 0.32 0.37 0.35 92 1012.4
20260504173519 59 57 0.0 4.0 0.33 0.36 0.35 92 1012.2
20260504173013 60 40 0.0 4.0 0.35 0.37 0.34 92 1012.3
20260504172518 60 39 0.0 4.0 0.34 0.36 0.33 92 1012.3
20260504172006 60 30 0.0 2.0 0.32 0.35 0.31 91 1012.3
20260504171504 60 25 0.0 4.0 0.31 0.35 0.30 91 1012.4
20260504170512 60 25 2.0 5.0 0.27 0.33 0.27 89 1012.4